Notices

What's New in latest Release from April 7th, 2021:

- Updated Glossary, including Speed of Maximum Gust, and Total Hourly Precipitation

- Updated national and regional climate services offices contacts and prices information

- Addition of station inventory lists for 1981-2010, 1971-2000, and 1961-1990 Normals.

If you haven't already, please take our survey and provide feedback about our website: https://eccc.sondage-survey.ca/f/LanguageSelection.aspx?s=442ca660-fcf1-47c0-95a9-59707d6fd709

Hourly Data Report for December 20, 2018

CARBERRY CS
MANITOBA
Current Station Operator: ECCC - MSC

49°54'20.900" N
99°21'26.800" W
383.50 m
5010547
71170
WZE

Download Data

Hourly Data (December 2018)
Hourly Data Report for December 20, 2018
TIME
LST
Temp Definition
°C
Dew Point Definition
°C
Rel Hum Definition
%
Precip. Amount Definition
mm

Wind Dir Definition
10's deg

Wind Spd Definition
km/h
Visibility Definition
km
Stn Press Definition
kPa
Hmdx Definition


Wind Chill Definition


Weather Definition


00:00 -5.3 -6.1 94 0.0 36 14   96.71   -11 LegendNANA
01:00 -5.6 -6.0 96 0.0 1 10   96.76   -10 LegendNANA
02:00 -5.6 -5.9 98 0.0 1 8   96.80   -9 LegendNANA
03:00 -5.7 -6.0 98 0.0 1 8   96.85   -9 LegendNANA
04:00 -5.7 -5.9 99 0.0 4 7   96.88   -9 LegendNANA
05:00 -5.7 -5.8 99 0.0 3 3   96.93   -7 LegendNANA
06:00 -5.7 -5.8 99 0.0 7 5   96.95   -8 LegendNANA
07:00 -5.6 -5.7 99 0.0 8 2   96.98   -7 LegendNANA
08:00 -5.5 -5.6 99 0.0 11 1   96.99   -6 LegendNANA
09:00 -5.4 -5.6 98 0.0 26 7   97.07   -9 LegendNANA
10:00 -5.3 -5.6 97 0.0 27 4   97.14   -7 LegendNANA
11:00 -5.2 -5.6 97 0.0 27 3   97.15   -7 LegendNANA
12:00 -5.0 -5.4 97 0.0 27 4   97.13   -7 LegendNANA
13:00 -5.3 -5.7 96 0.0 26 5   97.12   -8 LegendNANA
14:00 -5.4 -5.9 96 0.0 26 8   97.08   -9 LegendNANA
15:00 -5.5 -6.1 96 0.0 25 3   97.09   -7 LegendNANA
16:00 -5.8 -6.3 96 0.0 25 5   97.10   -8 LegendNANA
17:00 -5.9 -6.3 96 0.0 28 4   97.13   -8 LegendNANA
18:00 -6.0 -6.4 97 0.0 0 1   97.10   -6 LegendNANA
19:00 -6.2 -6.5 97 0.0 20 3   97.04   -8 LegendNANA
20:00 -5.8 -6.1 98 0.0 14 5   96.98   -8 LegendNANA
21:00 -6.0 -6.4 97 0.0 16 7   96.97   -9 LegendNANA
22:00 -6.1 -6.5 97 0.0 14 7   96.92   -9 LegendNANA
23:00 -6.4 -6.8 97 0.0 14 7   96.88   -10 LegendNANA

Notes on Data Quality.

Legend

  • E = Estimated
  • M = Missing
  • NA = Not Available*
  • [empty] = Indicates an unobserved value
Date modified: